| time (UTC) | temp F | wind direction | speed MPH | gust MPH | rain 1hr in | rain 24hr in | rain mn in | humidity % | barometer mb |
| 20260507003819 | 72 | 257 | 2.0 | 6.0 | 0.00 | 0.00 | 0.00 | 59 | 1019.5 |
| 20260507003314 | 71 | 255 | 3.0 | 6.0 | 0.00 | 0.00 | 0.00 | 59 | 1019.5 |
| 20260507002809 | 72 | 293 | 7.0 | 9.0 | 0.00 | 0.00 | 0.00 | 58 | 1019.5 |
| 20260507002306 | 72 | 220 | 2.0 | 5.0 | 0.00 | 0.00 | 0.00 | 57 | 1019.7 |
| 20260507001803 | 72 | 213 | 3.0 | 6.0 | 0.00 | 0.00 | 0.00 | 58 | 1019.5 |
| 20260507001300 | 72 | 282 | 2.0 | 6.0 | 0.00 | 0.00 | 0.00 | 57 | 1019.4 |
| 20260507000756 | 72 | 225 | 0.0 | 4.0 | 0.00 | 0.00 | 0.00 | 57 | 1019.4 |
| 20260507000252 | 72 | 340 | 1.0 | 5.0 | 0.00 | 0.00 | 0.00 | 57 | 1019.3 |
| 20260506235749 | 72 | 253 | 6.0 | 6.0 | 0.00 | 0.00 | 0.00 | 58 | 1019.5 |
| 20260506235244 | 73 | 254 | 1.0 | 7.0 | 0.00 | 0.00 | 0.00 | 58 | 1019.2 |
| 20260506234742 | 72 | 283 | 2.0 | 5.0 | 0.00 | 0.00 | 0.00 | 58 | 1019.4 |
| 20260506234239 | 72 | 222 | 3.0 | 8.0 | 0.00 | 0.00 | 0.00 | 58 | 1019.5 |
| 20260506233736 | 73 | 237 | 2.0 | 6.0 | 0.00 | 0.00 | 0.00 | 57 | 1019.5 |
| 20260506233233 | 73 | 4 | 2.0 | 5.0 | 0.00 | 0.00 | 0.00 | 57 | 1019.4 |
| 20260506232729 | 72 | 350 | 3.0 | 5.0 | 0.00 | 0.00 | 0.00 | 57 | 1019.4 |
| 20260506232224 | 72 | 225 | 3.0 | 4.0 | 0.00 | 0.00 | 0.00 | 56 | 1019.3 |
| 20260506231722 | 73 | 255 | 6.0 | 6.0 | 0.00 | 0.00 | 0.00 | 55 | 1019.3 |
| 20260506231220 | 73 | 302 | 4.0 | 6.0 | 0.00 | 0.00 | 0.00 | 55 | 1019.0 |
| 20260506230716 | 73 | 236 | 3.0 | 5.0 | 0.00 | 0.00 | 0.00 | 54 | 1019.5 |
| 20260506230213 | 74 | 209 | 2.0 | 4.0 | 0.00 | 0.00 | 0.00 | 55 | 1019.6 |
| 20260506225710 | 74 | 234 | 3.0 | 7.0 | 0.00 | 0.00 | 0.00 | 55 | 1019.4 |
| 20260506225207 | 73 | 289 | 1.0 | 6.0 | 0.00 | 0.00 | 0.00 | 54 | 1019.4 |
| 20260506224703 | 73 | 203 | 3.0 | 3.0 | 0.00 | 0.00 | 0.00 | 52 | 1019.7 |
| 20260506224201 | 73 | 270 | 2.0 | 7.0 | 0.00 | 0.00 | 0.00 | 53 | 1019.7 |
| 20260506223656 | 73 | 225 | 2.0 | 6.0 | 0.00 | 0.00 | 0.00 | 53 | 1019.8 |
| 20260506223152 | 73 | 225 | 2.0 | 6.0 | 0.00 | 0.00 | 0.00 | 53 | 1019.8 |
| 20260506222649 | 73 | 225 | 2.0 | 6.0 | 0.00 | 0.00 | 0.00 | 53 | 1019.8 |
| 20260506222145 | 73 | 289 | 0.0 | 4.0 | 0.00 | 0.00 | 0.00 | 53 | 1019.9 |
| 20260506221643 | 75 | 201 | 6.0 | 6.0 | 0.00 | 0.00 | 0.00 | 52 | 1019.9 |
| 20260506221141 | 72 | 270 | 0.0 | 3.0 | 0.00 | 0.00 | 0.00 | 54 | 1019.9 |
| 20260506220638 | 72 | 246 | 0.0 | 6.0 | 0.00 | 0.00 | 0.00 | 55 | 1020.2 |
| 20260506220133 | 70 | 258 | 0.0 | 5.0 | 0.00 | 0.00 | 0.00 | 55 | 1020.2 |
| 20260506215630 | 73 | 270 | 4.0 | 5.0 | 0.00 | 0.00 | 0.00 | 54 | 1020.4 |
| 20260506215125 | 72 | 278 | 4.0 | 4.0 | 0.00 | 0.00 | 0.00 | 56 | 1020.2 |
| 20260506214622 | 73 | 81 | 0.0 | 3.0 | 0.00 | 0.00 | 0.00 | 55 | 1020.3 |
| 20260506214120 | 72 | 247 | 0.0 | 5.0 | 0.00 | 0.00 | 0.00 | 55 | 1020.4 |
| 20260506213618 | 71 | 270 | 0.0 | 6.0 | 0.00 | 0.00 | 0.00 | 55 | 1020.6 |
| 20260506213115 | 72 | 23 | 1.0 | 5.0 | 0.00 | 0.00 | 0.00 | 55 | 1020.5 |
| 20260506212612 | 72 | 212 | 0.0 | 5.0 | 0.00 | 0.00 | 0.00 | 56 | 1020.7 |
| 20260506212107 | 72 | 277 | 1.0 | 6.0 | 0.00 | 0.00 | 0.00 | 55 | 1020.8 |
| 20260506211602 | 72 | 203 | 2.0 | 5.0 | 0.00 | 0.00 | 0.00 | 54 | 1020.8 |
| 20260506211100 | 73 | 222 | 3.0 | 5.0 | 0.00 | 0.00 | 0.00 | 55 | 1020.8 |
| 20260506210556 | 73 | 60 | 1.0 | 4.0 | 0.00 | 0.00 | 0.00 | 55 | 1020.6 |
| 20260506210053 | 72 | 279 | 0.0 | 4.0 | 0.00 | 0.00 | 0.00 | 56 | 1020.8 |
| 20260506205550 | 71 | 237 | 3.0 | 6.0 | 0.00 | 0.00 | 0.00 | 57 | 1020.9 |
| 20260506205044 | 71 | 257 | 0.0 | 2.0 | 0.00 | 0.00 | 0.00 | 57 | 1021.0 |
| 20260506204543 | 72 | 253 | 0.0 | 4.0 | 0.00 | 0.00 | 0.00 | 56 | 1021.0 |
| 20260506204040 | 71 | 86 | 3.0 | 3.0 | 0.00 | 0.00 | 0.00 | 57 | 1020.9 |
| 20260506203538 | 71 | 215 | 3.0 | 5.0 | 0.00 | 0.00 | 0.00 | 56 | 1021.0 |
| 20260506203034 | 72 | 221 | 4.0 | 4.0 | 0.00 | 0.00 | 0.00 | 56 | 1021.2 |
| 20260506202532 | 72 | 342 | 0.0 | 5.0 | 0.00 | 0.00 | 0.00 | 58 | 1021.1 |
| 20260506202028 | 71 | 206 | 3.0 | 5.0 | 0.00 | 0.00 | 0.00 | 59 | 1021.2 |
| 20260506201526 | 70 | 188 | 0.0 | 1.0 | 0.00 | 0.00 | 0.00 | 58 | 1021.4 |
| 20260506201022 | 69 | 145 | 0.0 | 4.0 | 0.00 | 0.00 | 0.00 | 59 | 1021.3 |
| 20260506200518 | 69 | 239 | 0.0 | 2.0 | 0.00 | 0.00 | 0.00 | 61 | 1021.5 |
| 20260506200015 | 68 | 241 | 0.0 | 4.0 | 0.00 | 0.00 | 0.00 | 61 | 1021.7 |
| 20260506195512 | 68 | 200 | 0.0 | 5.0 | 0.00 | 0.00 | 0.00 | 60 | 1021.6 |
| 20260506195008 | 70 | 234 | 3.0 | 5.0 | 0.00 | 0.00 | 0.00 | 59 | 1021.6 |
| 20260506194506 | 70 | 270 | 0.0 | 3.0 | 0.00 | 0.00 | 0.00 | 62 | 1021.6 |
| 20260506194002 | 70 | 81 | 0.0 | 3.0 | 0.00 | 0.00 | 0.00 | 60 | 1021.8 |
| 20260506193500 | 70 | 212 | 2.0 | 3.0 | 0.00 | 0.00 | 0.00 | 60 | 1021.9 |
| 20260506192956 | 68 | 297 | 0.0 | 3.0 | 0.00 | 0.00 | 0.00 | 61 | 1021.9 |
| 20260506192453 | 70 | 209 | 0.0 | 4.0 | 0.00 | 0.00 | 0.00 | 61 | 1021.8 |
| 20260506191944 | 68 | 258 | 0.0 | 6.0 | 0.00 | 0.00 | 0.00 | 64 | 1021.9 |
| 20260506191441 | 69 | 208 | 0.0 | 6.0 | 0.00 | 0.00 | 0.00 | 63 | 1022.2 |
| 20260506190937 | 69 | 230 | 4.0 | 5.0 | 0.00 | 0.00 | 0.00 | 62 | 1021.9 |
| 20260506190434 | 69 | 342 | 0.0 | 4.0 | 0.00 | 0.00 | 0.00 | 63 | 1021.8 |
| 20260506185931 | 70 | 225 | 3.0 | 3.0 | 0.00 | 0.00 | 0.00 | 60 | 1022.2 |
| 20260506185428 | 70 | 319 | 2.0 | 5.0 | 0.00 | 0.00 | 0.00 | 60 | 1022.2 |
| 20260506184925 | 70 | 201 | 2.0 | 5.0 | 0.00 | 0.00 | 0.00 | 59 | 1022.1 |
| 20260506184422 | 68 | 270 | 0.0 | 3.0 | 0.00 | 0.00 | 0.00 | 63 | 1022.2 |
| 20260506183919 | 70 | 199 | 4.0 | 6.0 | 0.00 | 0.00 | 0.00 | 62 | 1022.2 |
| 20260506183414 | 69 | 209 | 1.0 | 7.0 | 0.00 | 0.00 | 0.00 | 62 | 1022.5 |
| 20260506182912 | 70 | 262 | 1.0 | 4.0 | 0.00 | 0.00 | 0.00 | 62 | 1022.5 |
| 20260506182409 | 68 | 300 | 0.0 | 2.0 | 0.00 | 0.00 | 0.00 | 58 | 1022.3 |
| 20260506181907 | 68 | 110 | 4.0 | 4.0 | 0.00 | 0.00 | 0.00 | 57 | 1022.4 |
| 20260506181404 | 69 | 262 | 0.0 | 3.0 | 0.00 | 0.00 | 0.00 | 59 | 1022.4 |
| 20260506180901 | 67 | 319 | 2.0 | 2.0 | 0.00 | 0.00 | 0.00 | 59 | 1022.6 |
| 20260506180357 | 66 | 233 | 2.0 | 3.0 | 0.00 | 0.00 | 0.00 | 60 | 1022.4 |
| 20260506175854 | 66 | 348 | 1.0 | 6.0 | 0.00 | 0.00 | 0.00 | 61 | 1022.4 |
| 20260506175350 | 67 | 270 | 3.0 | 3.0 | 0.00 | 0.00 | 0.00 | 59 | 1022.6 |
| 20260506174848 | 67 | 143 | 2.0 | 3.0 | 0.00 | 0.00 | 0.00 | 62 | 1022.6 |
| 20260506174345 | 65 | 257 | 0.0 | 2.0 | 0.00 | 0.00 | 0.00 | 60 | 1022.4 |
| 20260506173843 | 66 | 220 | 0.0 | 3.0 | 0.00 | 0.00 | 0.00 | 60 | 1022.5 |
| 20260506173339 | 64 | 99 | 0.0 | 0.0 | 0.00 | 0.00 | 0.00 | 62 | 1022.7 |
| 20260506172836 | 66 | 144 | 0.0 | 2.0 | 0.00 | 0.00 | 0.00 | 61 | 1022.5 |
| 20260506172333 | 67 | 263 | 0.0 | 3.0 | 0.00 | 0.00 | 0.00 | 61 | 1022.6 |
| 20260506171830 | 66 | 96 | 0.0 | 3.0 | 0.00 | 0.00 | 0.00 | 63 | 1022.7 |
| 20260506171327 | 64 | 258 | 2.0 | 2.0 | 0.00 | 0.00 | 0.00 | 64 | 1022.5 |
| 20260506170825 | 64 | 249 | 0.0 | 2.0 | 0.00 | 0.00 | 0.00 | 63 | 1022.6 |
| 20260506170320 | 66 | 240 | 2.0 | 2.0 | 0.00 | 0.00 | 0.00 | 63 | 1022.6 |
| 20260506165820 | 65 | 105 | 0.0 | 1.0 | 0.00 | 0.00 | 0.00 | 64 | 1022.3 |
| 20260506165317 | 63 | 340 | 0.0 | 1.0 | 0.00 | 0.00 | 0.00 | 66 | 1022.5 |
| 20260506164813 | 64 | 117 | 0.0 | 3.0 | 0.00 | 0.00 | 0.00 | 64 | 1022.7 |
| 20260506164310 | 64 | 120 | 0.0 | 3.0 | 0.00 | 0.00 | 0.00 | 66 | 1022.5 |
| 20260506163808 | 64 | 339 | 0.0 | 2.0 | 0.00 | 0.00 | 0.00 | 66 | 1022.6 |
| 20260506163302 | 64 | 240 | 0.0 | 2.0 | 0.00 | 0.00 | 0.00 | 67 | 1022.6 |
| 20260506162758 | 63 | 342 | 1.0 | 2.0 | 0.00 | 0.00 | 0.00 | 67 | 1022.6 |
| 20260506162256 | 62 | 257 | 0.0 | 3.0 | 0.00 | 0.00 | 0.00 | 70 | 1022.7 |
| 20260506161753 | 62 | 270 | 0.0 | 2.0 | 0.00 | 0.00 | 0.00 | 69 | 1022.6 |
| 20260506161250 | 63 | 337 | 0.0 | 0.0 | 0.00 | 0.00 | 0.00 | 70 | 1022.6 |
| 20260506160747 | 62 | 246 | 0.0 | 1.0 | 0.00 | 0.00 | 0.00 | 69 | 1022.2 |
| 20260506160243 | 63 | 121 | 0.0 | 5.0 | 0.00 | 0.00 | 0.00 | 71 | 1022.6 |
| 20260506155737 | 65 | 255 | 0.0 | 1.0 | 0.00 | 0.00 | 0.00 | 72 | 1022.7 |
| 20260506155233 | 63 | 243 | 0.0 | 2.0 | 0.00 | 0.00 | 0.00 | 74 | 1022.5 |
| 20260506153347 | 62 | 160 | 0.0 | 2.0 | 0.00 | 0.00 | 0.00 | 78 | 1022.8 |
| 20260506152843 | 62 | 243 | 0.0 | 3.0 | 0.00 | 0.00 | 0.00 | 80 | 1022.5 |
| 20260506152341 | 62 | 139 | 0.0 | 2.0 | 0.00 | 0.00 | 0.00 | 79 | 1022.8 |
| 20260506151839 | 62 | 164 | 0.0 | 0.0 | 0.00 | 0.00 | 0.00 | 81 | 1022.8 |
| 20260506151335 | 61 | 160 | 0.0 | 2.0 | 0.00 | 0.00 | 0.00 | 82 | 1022.9 |
| 20260506150833 | 60 | 106 | 0.0 | 2.0 | 0.00 | 0.00 | 0.00 | 82 | 1022.7 |
| 20260506150329 | 60 | 349 | 2.0 | 2.0 | 0.00 | 0.00 | 0.00 | 82 | 1022.7 |
| 20260506145826 | 60 | 157 | 0.0 | 1.0 | 0.00 | 0.00 | 0.00 | 84 | 1022.7 |
| 20260506145322 | 60 | 135 | 0.0 | 0.0 | 0.00 | 0.00 | 0.00 | 84 | 1022.6 |
| 20260506144820 | 60 | 277 | 0.0 | 2.0 | 0.00 | 0.00 | 0.00 | 84 | 1022.6 |
| 20260506144316 | 59 | 312 | 0.0 | 2.0 | 0.00 | 0.00 | 0.00 | 84 | 1022.9 |
| 20260506143815 | 59 | 90 | 0.0 | 1.0 | 0.00 | 0.00 | 0.00 | 85 | 1022.5 |
| 20260506143312 | 59 | 111 | 0.0 | 1.0 | 0.00 | 0.00 | 0.00 | 86 | 1022.6 |
| 20260506142810 | 58 | 275 | 0.0 | 2.0 | 0.00 | 0.00 | 0.00 | 87 | 1022.7 |
| 20260506142308 | 58 | 209 | 0.0 | 0.0 | 0.00 | 0.00 | 0.00 | 88 | 1022.6 |
| 20260506141806 | 57 | 111 | 0.0 | 0.0 | 0.00 | 0.00 | 0.00 | 90 | 1022.7 |
| 20260506141304 | 57 | 340 | 0.0 | 0.0 | 0.00 | 0.00 | 0.00 | 91 | 1022.6 |
| 20260506140801 | 56 | 340 | 0.0 | 1.0 | 0.00 | 0.00 | 0.00 | 93 | 1022.4 |
| 20260506140258 | 55 | 168 | 0.0 | 1.0 | 0.00 | 0.00 | 0.00 | 94 | 1022.4 |
| 20260506135755 | 55 | 131 | 0.0 | 0.0 | 0.00 | 0.00 | 0.00 | 95 | 1022.6 |
| 20260506135251 | 55 | 131 | 0.0 | 0.0 | 0.00 | 0.00 | 0.00 | 96 | 1022.2 |
| 20260506134748 | 54 | 99 | 0.0 | 0.0 | 0.00 | 0.00 | 0.00 | 96 | 1022.4 |
| 20260506134244 | 54 | 99 | 0.0 | 0.0 | 0.00 | 0.00 | 0.00 | 96 | 1022.5 |
| 20260506133742 | 53 | 99 | 0.0 | 0.0 | 0.00 | 0.00 | 0.00 | 96 | 1022.3 |
| 20260506133238 | 53 | 99 | 0.0 | 0.0 | 0.00 | 0.00 | 0.00 | 96 | 1022.2 |
| 20260506132735 | 52 | 99 | 0.0 | 0.0 | 0.00 | 0.00 | 0.00 | 96 | 1022.3 |
| 20260506132232 | 52 | 99 | 0.0 | 0.0 | 0.00 | 0.00 | 0.00 | 96 | 1022.2 |
| 20260506131730 | 52 | 99 | 0.0 | 0.0 | 0.00 | 0.00 | 0.00 | 96 | 1022.3 |
| 20260506131226 | 52 | 99 | 0.0 | 0.0 | 0.00 | 0.00 | 0.00 | 96 | 1022.1 |
| 20260506130723 | 52 | 99 | 0.0 | 0.0 | 0.00 | 0.00 | 0.00 | 95 | 1022.2 |
| 20260506130220 | 52 | 99 | 0.0 | 0.0 | 0.00 | 0.00 | 0.00 | 95 | 1022.0 |
| 20260506125718 | 52 | 99 | 0.0 | 0.0 | 0.00 | 0.00 | 0.00 | 95 | 1021.8 |
| 20260506125215 | 52 | 99 | 0.0 | 0.0 | 0.00 | 0.00 | 0.00 | 95 | 1022.0 |
| 20260506124713 | 52 | 346 | 0.0 | 0.0 | 0.00 | 0.00 | 0.00 | 95 | 1021.7 |
| 20260506124211 | 52 | 346 | 0.0 | 0.0 | 0.00 | 0.00 | 0.00 | 95 | 1021.6 |
| 20260506123708 | 52 | 346 | 0.0 | 0.0 | 0.00 | 0.00 | 0.00 | 95 | 1021.6 |
| 20260506123207 | 53 | 90 | 0.0 | 0.0 | 0.00 | 0.00 | 0.00 | 94 | 1021.8 |
| 20260506122703 | 53 | 90 | 0.0 | 0.0 | 0.00 | 0.00 | 0.00 | 94 | 1021.6 |
| 20260506122201 | 53 | 157 | 0.0 | 0.0 | 0.00 | 0.00 | 0.00 | 94 | 1021.5 |
| 20260506121659 | 53 | 157 | 0.0 | 0.0 | 0.00 | 0.00 | 0.00 | 94 | 1021.7 |
| 20260506121155 | 53 | 157 | 0.0 | 0.0 | 0.00 | 0.00 | 0.00 | 94 | 1021.6 |
| 20260506120653 | 53 | 157 | 0.0 | 0.0 | 0.00 | 0.00 | 0.00 | 94 | 1021.6 |
| 20260506120150 | 53 | 157 | 0.0 | 0.0 | 0.00 | 0.00 | 0.00 | 94 | 1021.7 |
| 20260506115648 | 53 | 157 | 0.0 | 0.0 | 0.00 | 0.00 | 0.00 | 94 | 1021.5 |
| 20260506115146 | 53 | 157 | 0.0 | 0.0 | 0.00 | 0.00 | 0.00 | 94 | 1021.4 |
| 20260506114643 | 54 | 157 | 0.0 | 0.0 | 0.00 | 0.00 | 0.00 | 94 | 1021.7 |
| 20260506114141 | 54 | 157 | 0.0 | 0.0 | 0.00 | 0.00 | 0.00 | 93 | 1021.6 |
| 20260506113639 | 54 | 157 | 0.0 | 0.0 | 0.00 | 0.00 | 0.00 | 94 | 1021.4 |
| 20260506113136 | 54 | 157 | 0.0 | 0.0 | 0.00 | 0.00 | 0.00 | 94 | 1021.4 |
| 20260506112632 | 54 | 157 | 0.0 | 0.0 | 0.00 | 0.00 | 0.00 | 94 | 1021.4 |
| 20260506112130 | 55 | 157 | 0.0 | 0.0 | 0.00 | 0.00 | 0.00 | 94 | 1021.2 |
| 20260506111628 | 55 | 157 | 0.0 | 0.0 | 0.00 | 0.00 | 0.00 | 94 | 1021.2 |
| 20260506111125 | 55 | 180 | 0.0 | 0.0 | 0.00 | 0.00 | 0.00 | 94 | 1021.4 |
| 20260506110622 | 55 | 180 | 0.0 | 0.0 | 0.00 | 0.00 | 0.00 | 95 | 1021.3 |
| 20260506110120 | 55 | 180 | 0.0 | 0.0 | 0.00 | 0.00 | 0.00 | 95 | 1021.3 |
| 20260506105616 | 55 | 180 | 0.0 | 0.0 | 0.00 | 0.00 | 0.00 | 95 | 1021.5 |
| 20260506105113 | 55 | 180 | 0.0 | 0.0 | 0.00 | 0.00 | 0.00 | 95 | 1021.4 |
| 20260506104611 | 55 | 180 | 0.0 | 0.0 | 0.00 | 0.00 | 0.00 | 95 | 1021.3 |
| 20260506104108 | 55 | 180 | 0.0 | 0.0 | 0.00 | 0.00 | 0.00 | 95 | 1021.3 |
| 20260506103605 | 56 | 180 | 0.0 | 0.0 | 0.00 | 0.00 | 0.00 | 95 | 1021.4 |
| 20260506103102 | 56 | 180 | 0.0 | 0.0 | 0.00 | 0.00 | 0.00 | 95 | 1021.6 |
| 20260506102600 | 56 | 180 | 0.0 | 0.0 | 0.00 | 0.00 | 0.00 | 95 | 1021.5 |
| 20260506102058 | 56 | 180 | 0.0 | 0.0 | 0.00 | 0.00 | 0.00 | 95 | 1021.3 |
| 20260506101554 | 56 | 180 | 0.0 | 0.0 | 0.00 | 0.00 | 0.00 | 95 | 1021.4 |
| 20260506101051 | 57 | 180 | 0.0 | 0.0 | 0.00 | 0.00 | 0.00 | 95 | 1021.2 |
| 20260506100549 | 56 | 180 | 0.0 | 0.0 | 0.00 | 0.00 | 0.00 | 95 | 1021.3 |
| 20260506100047 | 56 | 180 | 0.0 | 0.0 | 0.00 | 0.00 | 0.00 | 95 | 1021.5 |
| 20260506095546 | 56 | 90 | 0.0 | 0.0 | 0.00 | 0.00 | 0.00 | 95 | 1021.4 |
| 20260506095042 | 56 | 90 | 0.0 | 0.0 | 0.00 | 0.00 | 0.00 | 95 | 1021.5 |
| 20260506094540 | 56 | 90 | 0.0 | 0.0 | 0.00 | 0.00 | 0.00 | 95 | 1021.3 |
| 20260506094037 | 56 | 90 | 0.0 | 0.0 | 0.00 | 0.00 | 0.00 | 95 | 1021.4 |
| 20260506093536 | 56 | 90 | 0.0 | 0.0 | 0.00 | 0.00 | 0.00 | 94 | 1021.6 |
| 20260506093033 | 56 | 90 | 0.0 | 0.0 | 0.00 | 0.00 | 0.00 | 94 | 1021.6 |
| 20260506092530 | 56 | 90 | 0.0 | 0.0 | 0.00 | 0.00 | 0.00 | 94 | 1021.5 |
| 20260506092027 | 56 | 90 | 0.0 | 0.0 | 0.00 | 0.00 | 0.00 | 94 | 1021.4 |
| 20260506091525 | 56 | 90 | 0.0 | 0.0 | 0.00 | 0.00 | 0.00 | 94 | 1021.5 |
| 20260506091022 | 56 | 90 | 0.0 | 0.0 | 0.00 | 0.00 | 0.00 | 94 | 1021.4 |
| 20260506090520 | 56 | 90 | 0.0 | 0.0 | 0.00 | 0.00 | 0.00 | 93 | 1021.5 |
| 20260506090016 | 56 | 90 | 0.0 | 0.0 | 0.00 | 0.00 | 0.00 | 93 | 1021.6 |
| 20260506085513 | 57 | 90 | 0.0 | 0.0 | 0.00 | 0.00 | 0.00 | 93 | 1021.7 |
| 20260506085009 | 56 | 90 | 0.0 | 0.0 | 0.00 | 0.00 | 0.00 | 92 | 1021.6 |
| 20260506084506 | 56 | 90 | 0.0 | 0.0 | 0.00 | 0.00 | 0.00 | 92 | 1021.6 |
| 20260506084002 | 57 | 90 | 0.0 | 0.0 | 0.00 | 0.00 | 0.00 | 92 | 1021.8 |
| 20260506083500 | 57 | 90 | 0.0 | 0.0 | 0.00 | 0.00 | 0.00 | 92 | 1021.7 |
| 20260506082957 | 57 | 90 | 0.0 | 0.0 | 0.00 | 0.00 | 0.00 | 91 | 1021.7 |
| 20260506082454 | 57 | 90 | 0.0 | 0.0 | 0.00 | 0.00 | 0.00 | 91 | 1021.7 |
| 20260506081949 | 58 | 90 | 0.0 | 0.0 | 0.00 | 0.00 | 0.00 | 91 | 1021.9 |
| 20260506081448 | 58 | 90 | 0.0 | 0.0 | 0.00 | 0.00 | 0.00 | 91 | 1021.9 |
| 20260506080945 | 57 | 90 | 0.0 | 0.0 | 0.00 | 0.00 | 0.00 | 91 | 1021.8 |
| 20260506080442 | 57 | 90 | 0.0 | 0.0 | 0.00 | 0.00 | 0.00 | 90 | 1021.8 |
| 20260506073426 | 58 | 114 | 0.0 | 1.0 | 0.00 | 0.00 | 0.00 | 89 | 1021.8 |
| 20260506072923 | 58 | 111 | 0.0 | 0.0 | 0.00 | 0.00 | 0.00 | 89 | 1021.8 |
| 20260506072420 | 58 | 120 | 0.0 | 1.0 | 0.00 | 0.00 | 0.00 | 89 | 1021.7 |
| 20260506071918 | 59 | 83 | 0.0 | 2.0 | 0.00 | 0.00 | 0.00 | 89 | 1021.7 |
| 20260506071416 | 59 | 111 | 1.0 | 2.0 | 0.00 | 0.00 | 0.00 | 88 | 1021.8 |
| 20260506070912 | 58 | 90 | 0.0 | 0.0 | 0.00 | 0.00 | 0.00 | 88 | 1021.9 |
| 20260506070409 | 58 | 112 | 0.0 | 0.0 | 0.00 | 0.00 | 0.00 | 88 | 1021.5 |
| 20260506062347 | 58 | 105 | 0.0 | 0.0 | 0.00 | 0.06 | 0.06 | 85 | 1021.3 |
| 20260506061842 | 58 | 105 | 0.0 | 1.0 | 0.00 | 0.06 | 0.06 | 86 | 1021.4 |
| 20260506061339 | 58 | 270 | 0.0 | 0.0 | 0.00 | 0.06 | 0.06 | 85 | 1021.4 |
| 20260506060837 | 58 | 270 | 0.0 | 0.0 | 0.00 | 0.06 | 0.06 | 84 | 1021.4 |
| 20260506060335 | 58 | 270 | 0.0 | 0.0 | 0.00 | 0.06 | 0.06 | 84 | 1021.1 |
| 20260506051307 | 60 | 270 | 0.0 | 0.0 | 0.00 | 0.06 | 0.06 | 77 | 1020.9 |
| 20260506050805 | 60 | 270 | 0.0 | 0.0 | 0.00 | 0.06 | 0.06 | 76 | 1020.9 |
| 20260506050302 | 60 | 270 | 0.0 | 0.0 | 0.00 | 0.06 | 0.06 | 76 | 1020.8 |
| 20260506044752 | 61 | 282 | 0.0 | 0.0 | 0.00 | 0.06 | 0.06 | 74 | 1020.6 |
| 20260506044250 | 61 | 282 | 0.0 | 0.0 | 0.00 | 0.06 | 0.06 | 74 | 1020.4 |
| 20260506043747 | 61 | 282 | 0.0 | 2.0 | 0.00 | 0.06 | 0.06 | 73 | 1020.3 |
| 20260506043244 | 61 | 270 | 0.0 | 0.0 | 0.00 | 0.06 | 0.06 | 73 | 1020.3 |
| 20260506042743 | 62 | 270 | 0.0 | 1.0 | 0.00 | 0.06 | 0.06 | 72 | 1020.1 |
| 20260506042242 | 62 | 246 | 0.0 | 0.0 | 0.00 | 0.06 | 0.06 | 72 | 1020.1 |
| 20260506041739 | 62 | 246 | 0.0 | 2.0 | 0.00 | 0.06 | 0.06 | 71 | 1020.3 |
| 20260506041236 | 62 | 254 | 2.0 | 2.0 | 0.00 | 0.06 | 0.06 | 70 | 1020.2 |
| 20260506040734 | 62 | 261 | 0.0 | 0.0 | 0.00 | 0.06 | 0.06 | 69 | 1020.0 |
| 20260506040231 | 62 | 254 | 1.0 | 2.0 | 0.00 | 0.06 | 0.06 | 69 | 1020.0 |
| 20260506035727 | 63 | 270 | 0.0 | 0.0 | 0.00 | 0.06 | 0.06 | 68 | 1019.9 |
| 20260506035224 | 63 | 264 | 0.0 | 2.0 | 0.00 | 0.06 | 0.06 | 68 | 1019.9 |
| 20260506034721 | 63 | 228 | 0.0 | 2.0 | 0.00 | 0.06 | 0.06 | 67 | 1019.9 |
| 20260506034218 | 63 | 257 | 1.0 | 2.0 | 0.00 | 0.06 | 0.06 | 67 | 1019.7 |
| 20260506033716 | 63 | 249 | 0.0 | 1.0 | 0.00 | 0.06 | 0.06 | 66 | 1019.5 |
| 20260506033212 | 63 | 229 | 0.0 | 3.0 | 0.00 | 0.06 | 0.06 | 65 | 1019.6 |
| 20260506032709 | 64 | 337 | 0.0 | 3.0 | 0.00 | 0.06 | 0.06 | 64 | 1019.6 |
| 20260506032206 | 64 | 255 | 0.0 | 2.0 | 0.00 | 0.06 | 0.06 | 63 | 1019.5 |
| 20260506031703 | 64 | 319 | 0.0 | 4.0 | 0.00 | 0.06 | 0.06 | 63 | 1019.4 |
| 20260506031200 | 64 | 270 | 0.0 | 3.0 | 0.00 | 0.06 | 0.06 | 62 | 1019.5 |
| 20260506030659 | 64 | 241 | 2.0 | 2.0 | 0.00 | 0.06 | 0.06 | 61 | 1019.4 |
| 20260506030155 | 64 | 270 | 0.0 | 2.0 | 0.00 | 0.06 | 0.06 | 60 | 1019.1 |
| 20260506025652 | 64 | 270 | 0.0 | 2.0 | 0.00 | 0.06 | 0.06 | 60 | 1019.2 |
| 20260506025148 | 64 | 249 | 3.0 | 4.0 | 0.00 | 0.06 | 0.06 | 59 | 1019.2 |
| 20260506024646 | 64 | 240 | 0.0 | 3.0 | 0.00 | 0.06 | 0.06 | 59 | 1018.9 |
| 20260506024142 | 64 | 243 | 0.0 | 4.0 | 0.00 | 0.06 | 0.06 | 59 | 1018.9 |
| 20260506023638 | 65 | 270 | 0.0 | 3.0 | 0.00 | 0.06 | 0.06 | 58 | 1018.7 |
| 20260506023136 | 65 | 249 | 1.0 | 3.0 | 0.00 | 0.06 | 0.06 | 58 | 1018.6 |
| 20260506022633 | 65 | 245 | 0.0 | 3.0 | 0.00 | 0.06 | 0.06 | 57 | 1018.5 |
| 20260506022130 | 65 | 225 | 3.0 | 5.0 | 0.00 | 0.06 | 0.06 | 57 | 1018.6 |
| 20260506021628 | 66 | 240 | 1.0 | 3.0 | 0.00 | 0.06 | 0.06 | 56 | 1018.8 |
| 20260506021125 | 66 | 334 | 2.0 | 5.0 | 0.00 | 0.06 | 0.06 | 56 | 1018.6 |
| 20260506020622 | 66 | 337 | 2.0 | 3.0 | 0.00 | 0.06 | 0.06 | 55 | 1018.4 |
| 20260506020120 | 66 | 323 | 2.0 | 3.0 | 0.00 | 0.06 | 0.06 | 56 | 1018.5 |
| 20260506015617 | 65 | 233 | 2.0 | 4.0 | 0.00 | 0.06 | 0.06 | 57 | 1018.4 |
| 20260506015114 | 66 | 279 | 0.0 | 3.0 | 0.00 | 0.06 | 0.06 | 57 | 1018.3 |
| 20260506014612 | 66 | 266 | 3.0 | 3.0 | 0.00 | 0.06 | 0.06 | 57 | 1018.3 |
| 20260506014106 | 66 | 244 | 3.0 | 5.0 | 0.00 | 0.06 | 0.06 | 58 | 1018.3 |
| 20260506013605 | 66 | 301 | 2.0 | 3.0 | 0.00 | 0.06 | 0.06 | 58 | 1018.2 |
| 20260506013102 | 66 | 279 | 3.0 | 8.0 | 0.00 | 0.06 | 0.06 | 58 | 1018.2 |
| 20260506012558 | 66 | 282 | 0.0 | 3.0 | 0.00 | 0.06 | 0.06 | 59 | 1018.1 |
| 20260506012055 | 66 | 306 | 1.0 | 3.0 | 0.00 | 0.06 | 0.06 | 56 | 1018.1 |
| 20260506011553 | 67 | 235 | 3.0 | 3.0 | 0.00 | 0.06 | 0.06 | 57 | 1018.1 |
| 20260506011048 | 67 | 248 | 3.0 | 5.0 | 0.00 | 0.06 | 0.06 | 57 | 1018.2 |
| 20260506010548 | 67 | 263 | 3.0 | 5.0 | 0.00 | 0.06 | 0.06 | 56 | 1018.3 |
| 20260506010044 | 68 | 270 | 0.0 | 4.0 | 0.00 | 0.06 | 0.06 | 55 | 1018.3 |
| 20260506005541 | 67 | 281 | 3.0 | 5.0 | 0.00 | 0.06 | 0.06 | 56 | 1018.2 |
| 20260506005037 | 67 | 270 | 1.0 | 4.0 | 0.00 | 0.06 | 0.06 | 56 | 1018.2 |
| 20260506004535 | 67 | 260 | 2.0 | 4.0 | 0.00 | 0.06 | 0.06 | 55 | 1018.1 |